,,Stat6,,Stat2,,Stat8,,Stat9,,Stat10,,Wind1,,Wind1,
time,status,PA1M_AVG,status,PR1M_SUM,status,RH1M_AVG,status,SR1M_AVG,status,TA1M_AVG,status,W1dAve1m,status,W1sAve1m,
2009-05-15, 00:00:00,VALID,915.911,VALID,0,VALID,99.0211,VALID,-0.101885,VALID,19.9796,VALID,24,VALID,0.00111607,
2009-05-15, 00:01:00,VALID,915.889,VALID,0,VALID,98.9766,VALID,-0.0679233,VALID,19.9629,VALID,37,VALID,0.34375,
2009-05-15, 00:02:00,VALID,915.907,VALID,0,VALID,98.8812,VALID,-0.0509425,VALID,19.9794,VALID,17,VALID,0.138021,
2009-05-15, 00:03:00,VALID,915.91,VALID,0,VALID,98.6282,VALID,-0.0679233,VALID,20.038,VALID,356,VALID,0,
2009-05-15, 00:04:00,VALID,915.896,VALID,0,VALID,98.1501,VALID,-0.0849042,VALID,20.0802,VALID,356,VALID,0,
2009-05-15, 00:05:00,VALID,915.89,VALID,0,VALID,97.8601,VALID,-0.0849042,VALID,20.1384,VALID,7,VALID,0,
2009-05-15, 00:06:00,VALID,915.876,VALID,0,VALID,97.7126,VALID,-0.0679233,VALID,20.2222,VALID,25,VALID,0,
2009-05-15, 00:07:00,VALID,915.859,VALID,0,VALID,97.5346,VALID,-0.0679233,VALID,20.2652,VALID,26,VALID,0,
2009-05-15, 00:08:00,VALID,915.899,VALID,0,VALID,97.4621,VALID,-0.101885,VALID,20.2652,VALID,27,VALID,0,
2009-05-15, 00:09:00,VALID,915.9,VALID,0,VALID,97.279,VALID,-0.0679233,VALID,20.2457,VALID,27,VALID,0,
2009-05-15, 00:10:00,VALID,915.888,VALID,0,VALID,97.1938,VALID,-0.0849042,VALID,20.2168,VALID,23,VALID,0,
2009-05-15, 00:11:00,VALID,915.893,VALID,0,VALID,97.3223,VALID,-0.101885,VALID,20.2103,VALID,33,VALID,0,
2009-05-15, 00:12:00,VALID,915.894,VALID,0,VALID,97.2549,VALID,-0.0679233,VALID,20.187,VALID,92,VALID,0,
2009-05-15, 00:13:00,VALID,915.875,VALID,0,VALID,97.3782,VALID,-0.0509425,VALID,20.1736,VALID,68,VALID,0,
2009-05-15, 00:14:00,VALID,915.904,VALID,0,VALID,97.0616,VALID,-0.0509425,VALID,20.1773,VALID,23,VALID,0,
2009-05-15, 00:15:00,VALID,915.885,VALID,0,VALID,97.059,VALID,-0.0679233,VALID,20.2,VALID,22,VALID,0.00111607,
2009-05-15, 00:16:00,VALID,915.875,VALID,0,VALID,96.7691,VALID,-0.0849042,VALID,20.2292,VALID,19,VALID,0,
2009-05-15, 00:17:00,VALID,915.849,VALID,0,VALID,96.7844,VALID,-0.0679233,VALID,20.2517,VALID,25,VALID,0,
2009-05-15, 00:18:00,VALID,915.843,VALID,0,VALID,96.6966,VALID,-0.0849042,VALID,20.2809,VALID,32,VALID,0,
2009-05-15, 00:19:00,VALID,915.857,VALID,0,VALID,96.5885,VALID,-0.0849042,VALID,20.3169,VALID,32,VALID,0,
2009-05-15, 00:20:00,VALID,915.86,VALID,0,VALID,96.4779,VALID,-0.0679233,VALID,20.3623,VALID,26,VALID,0,
2009-05-15, 00:21:00,VALID,915.877,VALID,0,VALID,96.3151,VALID,-0.0509425,VALID,20.3655,VALID,22,VALID,0.00163517,
2009-05-15, 00:22:00,VALID,915.883,VALID,0,VALID,96.2299,VALID,-0.0849042,VALID,20.3853,VALID,25,VALID,0.00177557,
2009-05-15, 00:23:00,VALID,915.897,VALID,0,VALID,96.1829,VALID,-0.101885,VALID,20.388,VALID,29,VALID,0,
2009-05-15, 00:24:00,VALID,915.898,VALID,0,VALID,96.1206,VALID,0,VALID,20.4032,VALID,6,VALID,0,
2009-05-15, 00:25:00,VALID,915.891,VALID,0,VALID,96.2032,VALID,0.0339617,VALID,20.4064,VALID,353,VALID,0,
2009-05-15, 00:26:00,VALID,915.907,VALID,0,VALID,96.4894,VALID,0.0509425,VALID,20.4194,VALID,353,VALID,0,
2009-05-15, 00:27:00,VALID,915.897,VALID,0,VALID,96.6648,VALID,0.0339617,VALID,20.4162,VALID,353,VALID,0,
2009-05-15, 00:28:00,VALID,915.911,VALID,0,VALID,96.9052,VALID,0.0169808,VALID,20.4092,VALID,8,VALID,0,
2009-05-15, 00:29:00,VALID,915.899,VALID,0,VALID,97.2193,VALID,0,VALID,20.4029,VALID,31,VALID,0,
2009-05-15, 00:30:00,VALID,915.906,VALID,0,VALID,97.4469,VALID,0.0339617,VALID,20.364,VALID,29,VALID,0,
2009-05-15, 00:31:00,VALID,915.92,VALID,0,VALID,97.6783,VALID,0.0169808,VALID,20.334,VALID,26,VALID,0,
2009-05-15, 00:32:00,VALID,915.923,VALID,0,VALID,97.8233,VALID,0.0169808,VALID,20.3153,VALID,26,VALID,0,
2009-05-15, 00:33:00,VALID,915.938,VALID,0,VALID,98.0077,VALID,0.0339617,VALID,20.2931,VALID,26,VALID,0,
2009-05-15, 00:34:00,VALID,915.905,VALID,0,VALID,98.262,VALID,0.0169808,VALID,20.2569,VALID,35,VALID,0.127725,
2009-05-15, 00:35:00,VALID,915.936,VALID,0,VALID,98.4298,VALID,0,VALID,20.1987,VALID,23,VALID,0.00142045,
2009-05-15, 00:36:00,VALID,915.898,VALID,0,VALID,98.5379,VALID,0.0169808,VALID,20.173,VALID,32,VALID,0,
2009-05-15, 00:37:00,VALID,915.896,VALID,0,VALID,98.5443,VALID,0,VALID,20.1274,VALID,32,VALID,0,
2009-05-15, 00:38:00,VALID,915.856,VALID,0,VALID,98.8062,VALID,0,VALID,20.1339,VALID,68,VALID,0,
2009-05-15, 00:39:00,VALID,915.832,VALID,0,VALID,98.5659,VALID,0.0169808,VALID,20.1241,VALID,140,VALID,0,
2009-05-15, 00:40:00,VALID,915.831,VALID,0,VALID,98.3497,VALID,0.0339617,VALID,20.1244,VALID,163,VALID,0,
2009-05-15, 00:41:00,VALID,915.818,VALID,0,VALID,98.5227,VALID,0.0339617,VALID,20.1336,VALID,157,VALID,0,
2009-05-15, 00:42:00,VALID,915.783,VALID,0,VALID,98.2162,VALID,-0.0169808,VALID,20.1306,VALID,102,VALID,0.134266,
2009-05-15, 00:43:00,VALID,915.798,VALID,0,VALID,97.9364,VALID,0,VALID,20.1017,VALID,224,VALID,0,
2009-05-15, 00:44:00,VALID,915.8,VALID,0,VALID,97.4621,VALID,0,VALID,20.0954,VALID,217,VALID,0,
2009-05-15, 00:45:00,VALID,915.813,VALID,0,VALID,97.321,VALID,-0.0339617,VALID,20.1179,VALID,319,VALID,0,
2009-05-15, 00:46:00,VALID,915.803,VALID,0,VALID,97.2282,VALID,-0.0169808,VALID,20.1698,VALID,20,VALID,0,
2009-05-15, 00:47:00,VALID,915.769,VALID,0,VALID,96.6534,VALID,-0.0169808,VALID,20.199,VALID,305,VALID,0.051669,
2009-05-15, 00:48:00,VALID,915.785,VALID,0,VALID,95.481,VALID,-0.0169808,VALID,20.2047,VALID,1,VALID,0.094494,
2009-05-15, 00:49:00,VALID,915.802,VALID,0,VALID,95.6399,VALID,0,VALID,20.3483,VALID,286,VALID,0,
2009-05-15, 00:50:00,VALID,915.801,VALID,0,VALID,95.5331,VALID,0.0169808,VALID,20.3967,VALID,286,VALID,0,
2009-05-15, 00:51:00,VALID,915.786,VALID,0,VALID,95.4784,VALID,0,VALID,20.4037,VALID,286,VALID,0,
2009-05-15, 00:52:00,VALID,915.776,VALID,0,VALID,95.2216,VALID,0.0169808,VALID,20.4099,VALID,286,VALID,0,
2009-05-15, 00:53:00,VALID,915.737,VALID,0,VALID,93.6524,VALID,0.0169808,VALID,20.3837,VALID,265,VALID,0.255682,
2009-05-15, 00:54:00,VALID,915.743,VALID,0,VALID,93.1781,VALID,0,VALID,20.4943,VALID,66,VALID,0,
2009-05-15, 00:55:00,VALID,915.738,VALID,0,VALID,93.2506,VALID,0.0169808,VALID,20.6309,VALID,56,VALID,0.00093006,
2009-05-15, 00:56:00,VALID,915.743,VALID,0,VALID,93.5354,VALID,0,VALID,20.6531,VALID,38,VALID,0,
2009-05-15, 00:57:00,VALID,915.777,VALID,0,VALID,93.6778,VALID,0.0169808,VALID,20.6334,VALID,36,VALID,0,
2009-05-15, 00:58:00,VALID,915.774,VALID,0,VALID,93.894,VALID,0,VALID,20.5779,VALID,29,VALID,0,
2009-05-15, 00:59:00,VALID,915.771,VALID,0,VALID,93.5151,VALID,0,VALID,20.493,VALID,50,VALID,0,
2009-05-15, 01:00:00,VALID,915.774,VALID,0,VALID,93.8495,VALID,0.0169808,VALID,20.4906,VALID,39,VALID,0,
2009-05-15, 01:01:00,VALID,915.745,VALID,0,VALID,94.1509,VALID,0,VALID,20.5041,VALID,39,VALID,0,
2009-05-15, 01:02:00,VALID,915.763,VALID,0,VALID,94.2119,VALID,-0.0169808,VALID,20.4651,VALID,32,VALID,0,
2009-05-15, 01:03:00,VALID,915.759,VALID,0,VALID,94.498,VALID,0,VALID,20.4486,VALID,44,VALID,0,
2009-05-15, 01:04:00,VALID,915.742,VALID,0,VALID,94.5985,VALID,0,VALID,20.4194,VALID,42,VALID,0,
2009-05-15, 01:05:00,VALID,915.724,VALID,0,VALID,94.8604,VALID,0.0169808,VALID,20.4162,VALID,38,VALID,0,
2009-05-15, 01:06:00,VALID,915.71,VALID,0,VALID,94.952,VALID,0.0339617,VALID,20.4192,VALID,21,VALID,0,
2009-05-15, 01:07:00,VALID,915.722,VALID,0,VALID,94.6176,VALID,0.0509425,VALID,20.3892,VALID,21,VALID,0,
2009-05-15, 01:08:00,VALID,915.713,VALID,0,VALID,94.8223,VALID,0.0509425,VALID,20.3897,VALID,21,VALID,0,
2009-05-15, 01:09:00,VALID,915.718,VALID,0,VALID,94.8528,VALID,-0.0509425,VALID,20.3945,VALID,21,VALID,0,
2009-05-15, 01:10:00,VALID,915.729,VALID,0,VALID,94.8325,VALID,-0.0339617,VALID,20.3485,VALID,21,VALID,0,
2009-05-15, 01:11:00,VALID,915.732,VALID,0,VALID,95.1059,VALID,-0.0849042,VALID,20.359,VALID,21,VALID,0,
2009-05-15, 01:12:00,VALID,915.766,VALID,0,VALID,95.3767,VALID,-0.0849042,VALID,20.359,VALID,21,VALID,0,
2009-05-15, 01:13:00,VALID,915.788,VALID,0,VALID,95.5763,VALID,-0.0679233,VALID,20.3269,VALID,24,VALID,0,
2009-05-15, 01:14:00,VALID,915.799,VALID,0,VALID,95.9324,VALID,-0.101885,VALID,20.2684,VALID,20,VALID,0,
2009-05-15, 01:15:00,VALID,915.774,VALID,0,VALID,96.1549,VALID,-0.0849042,VALID,20.2395,VALID,33,VALID,0,
2009-05-15, 01:16:00,VALID,915.753,VALID,0,VALID,96.6585,VALID,-0.0849042,VALID,20.2198,VALID,34,VALID,0,
2009-05-15, 01:17:00,VALID,915.802,VALID,0,VALID,96.8836,VALID,-0.0509425,VALID,20.223,VALID,19,VALID,0,
2009-05-15, 01:18:00,VALID,915.822,VALID,0,VALID,96.8136,VALID,-0.0679233,VALID,20.207,VALID,24,VALID,0,
2009-05-15, 01:19:00,VALID,915.856,VALID,0,VALID,96.8734,VALID,-0.0849042,VALID,20.1676,VALID,40,VALID,0,
2009-05-15, 01:20:00,VALID,915.812,VALID,0,VALID,96.6877,VALID,-0.101885,VALID,20.1416,VALID,162,VALID,0.00104167,
2009-05-15, 01:21:00,VALID,915.831,VALID,0,VALID,97.1315,VALID,-0.0849042,VALID,20.1641,VALID,332,VALID,0.213986,
2009-05-15, 01:22:00,VALID,915.861,VALID,0,VALID,97.3312,VALID,-0.0679233,VALID,20.1843,VALID,307,VALID,0.0752841,
2009-05-15, 01:23:00,VALID,915.856,VALID,0,VALID,97.2739,VALID,-0.0509425,VALID,20.1641,VALID,271,VALID,0,
2009-05-15, 01:24:00,VALID,915.883,VALID,0,VALID,96.9484,VALID,-0.0849042,VALID,20.1092,VALID,81,VALID,0,
2009-05-15, 01:25:00,VALID,915.852,VALID,0,VALID,96.834,VALID,-0.101885,VALID,20.1124,VALID,141,VALID,0,
2009-05-15, 01:26:00,VALID,915.849,VALID,0,VALID,97.0069,VALID,-0.0679233,VALID,20.1349,VALID,52,VALID,0.351935,
2009-05-15, 01:27:00,VALID,915.849,VALID,0,VALID,96.7195,VALID,-0.0849042,VALID,20.1449,VALID,192,VALID,0.511328,
2009-05-15, 01:28:00,VALID,915.874,VALID,0,VALID,96.3075,VALID,-0.0849042,VALID,20.1484,VALID,236,VALID,0.300249,
2009-05-15, 01:29:00,VALID,915.854,VALID,0,VALID,96.3635,VALID,-0.0849042,VALID,20.1808,VALID,336,VALID,1.29942,
2009-05-15, 01:30:00,VALID,915.892,VALID,0,VALID,96.352,VALID,-0.101885,VALID,20.2195,VALID,342,VALID,1.30429,
2009-05-15, 01:31:00,VALID,915.88,VALID,0,VALID,96.4181,VALID,-0.0849042,VALID,20.2227,VALID,360,VALID,0.805259,
2009-05-15, 01:32:00,VALID,915.886,VALID,0,VALID,96.4398,VALID,-0.0509425,VALID,20.21,VALID,343,VALID,0.159801,
2009-05-15, 01:33:00,VALID,915.856,VALID,0.2,VALID,96.8518,VALID,-0.101885,VALID,20.2098,VALID,339,VALID,0.139482,
2009-05-15, 01:34:00,VALID,915.873,VALID,0,VALID,97.0539,VALID,-0.0679233,VALID,20.2195,VALID,254,VALID,0.594769,
2009-05-15, 01:35:00,VALID,915.89,VALID,0,VALID,97.6096,VALID,-0.101885,VALID,20.1903,VALID,318,VALID,0.359581,
2009-05-15, 01:36:00,VALID,915.92,VALID,0,VALID,97.9428,VALID,-0.0849042,VALID,20.1516,VALID,245,VALID,0.474276,
2009-05-15, 01:37:00,VALID,915.965,VALID,0,VALID,98.5252,VALID,-0.0849042,VALID,20.1029,VALID,11,VALID,0.267721,
2009-05-15, 01:38:00,VALID,915.925,VALID,0,VALID,98.7973,VALID,-0.101885,VALID,20.0283,VALID,57,VALID,0.276163,
2009-05-15, 01:39:00,VALID,915.972,VALID,0,VALID,99.208,VALID,-0.0169808,VALID,19.9494,VALID,153,VALID,0.560547,
2009-05-15, 01:40:00,VALID,915.951,VALID,0,VALID,99.7663,VALID,0,VALID,19.8872,VALID,196,VALID,0.938058,
2009-05-15, 01:41:00,VALID,915.962,VALID,0,VALID,99.9977,VALID,0.0169808,VALID,19.8226,VALID,27,VALID,0.863186,
2009-05-15, 01:42:00,VALID,916.028,VALID,0.2,VALID,100,VALID,0,VALID,19.754,VALID,18,VALID,0.192508,
2009-05-15, 01:43:00,VALID,916.019,VALID,0,VALID,100,VALID,0,VALID,19.7315,VALID,142,VALID,0.646763,
2009-05-15, 01:44:00,VALID,915.985,VALID,0,VALID,100,VALID,0,VALID,19.6696,VALID,82,VALID,0.905107,
2009-05-15, 01:45:00,VALID,916.035,VALID,0.2,VALID,100,VALID,0.0339617,VALID,19.6309,VALID,341,VALID,1.26488,
2009-05-15, 01:46:00,VALID,916.041,VALID,0.2,VALID,100,VALID,0.0169808,VALID,19.5755,VALID,225,VALID,0.717478,
2009-05-15, 01:47:00,VALID,916.032,VALID,0.2,VALID,100,VALID,0.0169808,VALID,19.5565,VALID,26,VALID,0.987926,
2009-05-15, 01:48:00,VALID,915.963,VALID,0,VALID,100,VALID,0.0339617,VALID,19.5074,VALID,84,VALID,2.75781,
2009-05-15, 01:49:00,VALID,915.955,VALID,0,VALID,100,VALID,0.0169808,VALID,19.4495,VALID,161,VALID,2.03434,
2009-05-15, 01:50:00,VALID,916.095,VALID,0.2,VALID,100,VALID,0.0169808,VALID,19.3614,VALID,232,VALID,1.18731,
2009-05-15, 01:51:00,VALID,916.03,VALID,0,VALID,100,VALID,0.0169808,VALID,19.303,VALID,197,VALID,0.532774,
2009-05-15, 01:52:00,VALID,915.911,VALID,0,VALID,100,VALID,0.0339617,VALID,19.2638,VALID,341,VALID,2.77816,
2009-05-15, 01:53:00,VALID,916.016,VALID,0,VALID,100,VALID,0.0169808,VALID,19.1925,VALID,249,VALID,2.51108,
2009-05-15, 01:54:00,VALID,915.979,VALID,0,VALID,100,VALID,-0.0679233,VALID,19.139,VALID,303,VALID,1.44996,
2009-05-15, 01:55:00,VALID,916.028,VALID,0,VALID,100,VALID,-0.0679233,VALID,19.1093,VALID,252,VALID,0.621838,
2009-05-15, 01:56:00,VALID,916.026,VALID,0,VALID,100,VALID,-0.0849042,VALID,19.0901,VALID,327,VALID,0.470424,
2009-05-15, 01:57:00,VALID,916.023,VALID,0.2,VALID,100,VALID,-0.0509425,VALID,19.0741,VALID,294,VALID,1.46208,
2009-05-15, 01:58:00,VALID,915.974,VALID,0,VALID,100,VALID,-0.0849042,VALID,19.0419,VALID,271,VALID,1.52801,
2009-05-15, 01:59:00,VALID,915.998,VALID,0,VALID,100,VALID,-0.0679233,VALID,19.0092,VALID,250,VALID,0.573401,
2009-05-15, 02:00:00,VALID,915.96,VALID,0,VALID,100,VALID,-0.0679233,VALID,18.9731,VALID,251,VALID,1.85411,
2009-05-15, 02:01:00,VALID,915.944,VALID,0,VALID,100,VALID,-0.0169808,VALID,18.9893,VALID,119,VALID,0.769531,
2009-05-15, 02:02:00,VALID,915.983,VALID,0,VALID,100,VALID,-0.0169808,VALID,18.996,VALID,311,VALID,0.625186,
2009-05-15, 02:03:00,VALID,915.919,VALID,0,VALID,100,VALID,-0.0339617,VALID,18.9958,VALID,302,VALID,1.88039,
2009-05-15, 02:04:00,VALID,915.977,VALID,0,VALID,100,VALID,-0.0339617,VALID,18.9895,VALID,210,VALID,1.14974,
2009-05-15, 02:05:00,VALID,915.963,VALID,0,VALID,100,VALID,-0.0509425,VALID,18.9963,VALID,293,VALID,0.636991,
2009-05-15, 02:06:00,VALID,915.906,VALID,0,VALID,100,VALID,-0.0509425,VALID,18.9891,VALID,319,VALID,0.717842,
2009-05-15, 02:07:00,VALID,915.918,VALID,0,VALID,100,VALID,-0.0509425,VALID,18.9828,VALID,352,VALID,2.05469,
2009-05-15, 02:08:00,VALID,915.904,VALID,0,VALID,100,VALID,-0.0509425,VALID,18.9761,VALID,242,VALID,0.496394,
2009-05-15, 02:09:00,VALID,915.899,VALID,0,VALID,100,VALID,-0.0339617,VALID,18.9701,VALID,208,VALID,0.475291,
2009-05-15, 02:10:00,VALID,915.916,VALID,0,VALID,100,VALID,-0.0509425,VALID,18.9536,VALID,251,VALID,0.287153,
2009-05-15, 02:11:00,VALID,915.857,VALID,0,VALID,100,VALID,-0.0509425,VALID,18.9372,VALID,248,VALID,0.139583,
2009-05-15, 02:12:00,VALID,915.854,VALID,0,VALID,100,VALID,-0.0339617,VALID,18.9337,VALID,233,VALID,0.145389,
2009-05-15, 02:13:00,VALID,915.869,VALID,0,VALID,100,VALID,-0.0339617,VALID,18.9409,VALID,256,VALID,1.65662,
2009-05-15, 02:14:00,VALID,915.834,VALID,0,VALID,100,VALID,-0.0679233,VALID,18.9307,VALID,295,VALID,0.680432,
2009-05-15, 02:15:00,VALID,915.804,VALID,0,VALID,100,VALID,0,VALID,18.9307,VALID,212,VALID,0.18532,
2009-05-15, 02:16:00,VALID,915.742,VALID,0,VALID,100,VALID,-0.0339617,VALID,18.9534,VALID,330,VALID,0.248242,
2009-05-15, 02:17:00,VALID,915.775,VALID,0,VALID,100,VALID,-0.0339617,VALID,18.9768,VALID,181,VALID,0,
2009-05-15, 02:18:00,VALID,915.753,VALID,0,VALID,100,VALID,-0.0169808,VALID,18.9728,VALID,198,VALID,0.000545058,
2009-05-15, 02:19:00,VALID,915.726,VALID,0,VALID,100,VALID,-0.0509425,VALID,18.9698,VALID,247,VALID,0.0585938,
2009-05-15, 02:20:00,VALID,915.717,VALID,0,VALID,100,VALID,-0.0169808,VALID,18.9569,VALID,302,VALID,0,
2009-05-15, 02:21:00,VALID,915.674,VALID,0,VALID,100,VALID,-0.0339617,VALID,18.9497,VALID,273,VALID,0,
2009-05-15, 02:22:00,VALID,915.665,VALID,0,VALID,100,VALID,0,VALID,18.9469,VALID,144,VALID,0.0465199,
2009-05-15, 02:23:00,VALID,915.686,VALID,0,VALID,100,VALID,-0.0509425,VALID,18.9506,VALID,214,VALID,0,
2009-05-15, 02:24:00,VALID,915.655,VALID,0,VALID,100,VALID,-0.0339617,VALID,18.9698,VALID,123,VALID,0.244665,
2009-05-15, 02:25:00,VALID,915.664,VALID,0,VALID,100,VALID,-0.0169808,VALID,18.9888,VALID,353,VALID,0.440168,
2009-05-15, 02:26:00,VALID,915.535,VALID,0,VALID,100,VALID,-0.0679233,VALID,19.0153,VALID,292,VALID,2.37949,
2009-05-15, 02:27:00,VALID,915.536,VALID,0,VALID,100,VALID,-0.0169808,VALID,19.0215,VALID,11,VALID,0.428993,
2009-05-15, 02:28:00,VALID,915.554,VALID,0,VALID,100,VALID,-0.0849042,VALID,19.0347,VALID,20,VALID,0.367535,
2009-05-15, 02:29:00,VALID,915.582,VALID,0,VALID,100,VALID,-0.0849042,VALID,19.0639,VALID,2,VALID,0.0298295,
2009-05-15, 02:30:00,VALID,915.521,VALID,0,VALID,100,VALID,-0.0679233,VALID,19.0639,VALID,353,VALID,0.541853,
2009-05-15, 02:31:00,VALID,915.515,VALID,0.2,VALID,100,VALID,-0.0679233,VALID,19.0604,VALID,83,VALID,0.0874256,
2009-05-15, 02:32:00,VALID,915.499,VALID,0,VALID,100,VALID,-0.101885,VALID,19.0741,VALID,184,VALID,0.0236037,
2009-05-15, 02:33:00,VALID,915.493,VALID,0,VALID,100,VALID,-0.0679233,VALID,19.0607,VALID,219,VALID,0.187691,
2009-05-15, 02:34:00,VALID,915.44,VALID,0,VALID,100,VALID,-0.0509425,VALID,19.0569,VALID,335,VALID,1.16076,
2009-05-15, 02:35:00,VALID,915.493,VALID,0,VALID,100,VALID,-0.0509425,VALID,19.0539,VALID,333,VALID,0.19082,
2009-05-15, 02:36:00,VALID,915.487,VALID,0,VALID,100,VALID,-0.0849042,VALID,19.0704,VALID,54,VALID,0.00234375,
2009-05-15, 02:37:00,VALID,915.373,VALID,0,VALID,100,VALID,-0.0509425,VALID,19.0933,VALID,21,VALID,1.21719,
2009-05-15, 02:38:00,VALID,915.382,VALID,0,VALID,100,VALID,-0.0849042,VALID,19.0869,VALID,313,VALID,0.244004,
2009-05-15, 02:39:00,VALID,915.414,VALID,0,VALID,100,VALID,0,VALID,19.0762,VALID,208,VALID,0.0505087,
2009-05-15, 02:40:00,VALID,915.348,VALID,0,VALID,100,VALID,0.0169808,VALID,19.0687,VALID,186,VALID,0.736779,
2009-05-15, 02:41:00,VALID,915.307,VALID,0,VALID,100,VALID,0,VALID,19.0859,VALID,266,VALID,0.0287642,
2009-05-15, 02:42:00,VALID,915.32,VALID,0,VALID,100,VALID,0.0169808,VALID,19.0884,VALID,339,VALID,0.166667,
2009-05-15, 02:43:00,VALID,915.278,VALID,0,VALID,100,VALID,0.0509425,VALID,19.1181,VALID,345,VALID,0.63151,
2009-05-15, 02:44:00,VALID,915.264,VALID,0,VALID,100,VALID,0.0169808,VALID,19.1206,VALID,203,VALID,0.0562119,
2009-05-15, 02:45:00,VALID,915.232,VALID,0,VALID,100,VALID,0.0509425,VALID,19.1239,VALID,252,VALID,0,
2009-05-15, 02:46:00,VALID,915.166,VALID,0,VALID,100,VALID,0.0169808,VALID,19.1206,VALID,299,VALID,0.621711,
2009-05-15, 02:47:00,VALID,915.166,VALID,0,VALID,100,VALID,0.0849042,VALID,19.1466,VALID,28,VALID,0.249092,
2009-05-15, 02:48:00,VALID,915.189,VALID,0,VALID,100,VALID,0.0339617,VALID,19.1725,VALID,358,VALID,0.0508721,
2009-05-15, 02:49:00,VALID,915.167,VALID,0,VALID,100,VALID,0.0509425,VALID,19.1855,VALID,323,VALID,0.148828,
2009-05-15, 02:50:00,VALID,915.141,VALID,0,VALID,100,VALID,0.0169808,VALID,19.179,VALID,318,VALID,0.00958807,
2009-05-15, 02:51:00,VALID,915.158,VALID,0,VALID,100,VALID,0.0339617,VALID,19.1762,VALID,18,VALID,0.711868,
2009-05-15, 02:52:00,VALID,915.107,VALID,0,VALID,100,VALID,0.0339617,VALID,19.179,VALID,17,VALID,0.791159,
2009-05-15, 02:53:00,VALID,915.018,VALID,0,VALID,100,VALID,0.0169808,VALID,19.1862,VALID,16,VALID,2.1918,
2009-05-15, 02:54:00,VALID,915.042,VALID,0,VALID,100,VALID,-0.0509425,VALID,19.1707,VALID,246,VALID,1.27598,
2009-05-15, 02:55:00,VALID,915.076,VALID,0,VALID,100,VALID,-0.0339617,VALID,19.158,VALID,290,VALID,0.0732195,
2009-05-15, 02:56:00,VALID,915.09,VALID,0,VALID,100,VALID,-0.101885,VALID,19.1682,VALID,344,VALID,0.088956,
2009-05-15, 02:57:00,VALID,915.091,VALID,0,VALID,100,VALID,-0.0509425,VALID,19.1839,VALID,45,VALID,0.359184,
2009-05-15, 02:58:00,VALID,915.092,VALID,0,VALID,100,VALID,-0.0679233,VALID,19.1807,VALID,49,VALID,0.496185,
2009-05-15, 02:59:00,VALID,915.096,VALID,0,VALID,100,VALID,-0.101885,VALID,19.1842,VALID,53,VALID,0.0746951,
2009-05-15, 03:00:00,VALID,915.119,VALID,0,VALID,100,VALID,-0.0509425,VALID,19.1877,VALID,64,VALID,0.0358232,
2009-05-15, 03:01:00,VALID,915.133,VALID,0,VALID,100,VALID,-0.0509425,VALID,19.174,VALID,126,VALID,0.00213068,
2009-05-15, 03:02:00,VALID,915.101,VALID,0,VALID,100,VALID,-0.0679233,VALID,19.1877,VALID,139,VALID,0,
2009-05-15, 03:03:00,VALID,915.093,VALID,0,VALID,100,VALID,-0.0849042,VALID,19.1874,VALID,61,VALID,0.227706,
2009-05-15, 03:04:00,VALID,915.136,VALID,0,VALID,100,VALID,-0.0509425,VALID,19.1937,VALID,279,VALID,0,
2009-05-15, 03:05:00,VALID,915.143,VALID,0,VALID,100,VALID,-0.118866,VALID,19.1874,VALID,244,VALID,0,
2009-05-15, 03:06:00,VALID,915.156,VALID,0,VALID,100,VALID,-0.101885,VALID,19.1842,VALID,218,VALID,0.214286,
2009-05-15, 03:07:00,VALID,915.143,VALID,0,VALID,100,VALID,-0.0849042,VALID,19.1909,VALID,148,VALID,0.186228,
2009-05-15, 03:08:00,VALID,915.099,VALID,0,VALID,100,VALID,-0.0509425,VALID,19.1545,VALID,272,VALID,1.55907,
2009-05-15, 03:09:00,VALID,915.083,VALID,0,VALID,100,VALID,-0.0679233,VALID,19.1221,VALID,228,VALID,1.19703,
2009-05-15, 03:10:00,VALID,915.059,VALID,0,VALID,100,VALID,-0.101885,VALID,19.1485,VALID,263,VALID,1.30801,
2009-05-15, 03:11:00,VALID,915.105,VALID,0,VALID,100,VALID,-0.0849042,VALID,19.1652,VALID,37,VALID,0.758371,
2009-05-15, 03:12:00,VALID,915.071,VALID,0,VALID,100,VALID,-0.101885,VALID,19.1617,VALID,250,VALID,0.969815,
2009-05-15, 03:13:00,VALID,915.101,VALID,0,VALID,100,VALID,-0.101885,VALID,19.1453,VALID,292,VALID,0.264137,
2009-05-15, 03:14:00,VALID,915.08,VALID,0,VALID,100,VALID,-0.0679233,VALID,19.135,VALID,304,VALID,0,
2009-05-15, 03:15:00,VALID,915.085,VALID,0,VALID,100,VALID,-0.0679233,VALID,19.1413,VALID,222,VALID,0,
2009-05-15, 03:16:00,VALID,915.091,VALID,0,VALID,100,VALID,-0.118866,VALID,19.1383,VALID,212,VALID,0,
2009-05-15, 03:17:00,VALID,915.045,VALID,0,VALID,100,VALID,-0.0849042,VALID,19.1487,VALID,79,VALID,0.408789,
2009-05-15, 03:18:00,VALID,915.048,VALID,0,VALID,100,VALID,-0.101885,VALID,19.1455,VALID,285,VALID,0.217842,
2009-05-15, 03:19:00,VALID,915.025,VALID,0,VALID,100,VALID,-0.0849042,VALID,19.1161,VALID,292,VALID,0.55629,
2009-05-15, 03:20:00,VALID,915.008,VALID,0,VALID,100,VALID,-0.101885,VALID,19.1295,VALID,345,VALID,0.439732,
2009-05-15, 03:21:00,VALID,915.027,VALID,0,VALID,100,VALID,-0.101885,VALID,19.136,VALID,16,VALID,0.0701265,
2009-05-15, 03:22:00,VALID,914.975,VALID,0,VALID,100,VALID,-0.0849042,VALID,19.1288,VALID,289,VALID,0.956641,
2009-05-15, 03:23:00,VALID,914.983,VALID,0,VALID,100,VALID,-0.0679233,VALID,19.0834,VALID,287,VALID,0.183408,
2009-05-15, 03:24:00,VALID,914.989,VALID,0,VALID,100,VALID,-0.0679233,VALID,19.0829,VALID,9,VALID,0,
2009-05-15, 03:25:00,VALID,914.963,VALID,0,VALID,100,VALID,-0.101885,VALID,19.1031,VALID,39,VALID,0,
2009-05-15, 03:26:00,VALID,914.94,VALID,0,VALID,100,VALID,-0.0849042,VALID,19.0836,VALID,349,VALID,0,
2009-05-15, 03:27:00,VALID,914.952,VALID,0,VALID,100,VALID,-0.0679233,VALID,19.1061,VALID,329,VALID,0,
2009-05-15, 03:28:00,VALID,914.934,VALID,0,VALID,100,VALID,-0.101885,VALID,19.1188,VALID,347,VALID,0,
2009-05-15, 03:29:00,VALID,914.924,VALID,0,VALID,100,VALID,-0.0679233,VALID,19.1328,VALID,358,VALID,0.0293899,
2009-05-15, 03:30:00,VALID,914.884,VALID,0,VALID,100,VALID,-0.0509425,VALID,19.0896,VALID,333,VALID,0.263263,
2009-05-15, 03:31:00,VALID,914.892,VALID,0,VALID,100,VALID,-0.0849042,VALID,19.0936,VALID,8,VALID,0,
2009-05-15, 03:32:00,VALID,914.904,VALID,0,VALID,100,VALID,-0.0849042,VALID,19.1031,VALID,54,VALID,0,
2009-05-15, 03:33:00,VALID,914.897,VALID,0,VALID,100,VALID,-0.0849042,VALID,19.0901,VALID,3,VALID,0,
2009-05-15, 03:34:00,VALID,914.879,VALID,0,VALID,100,VALID,-0.0849042,VALID,19.1066,VALID,33,VALID,0.00400152,
2009-05-15, 03:35:00,VALID,914.872,VALID,0,VALID,100,VALID,-0.0849042,VALID,19.0996,VALID,17,VALID,0.00490552,
2009-05-15, 03:36:00,VALID,914.853,VALID,0,VALID,100,VALID,-0.118866,VALID,19.0899,VALID,20,VALID,0.233333,
2009-05-15, 03:37:00,VALID,914.842,VALID,0,VALID,100,VALID,-0.0849042,VALID,19.0769,VALID,51,VALID,0.109201,
2009-05-15, 03:38:00,VALID,914.824,VALID,0,VALID,100,VALID,-0.0679233,VALID,19.0609,VALID,22,VALID,0.214558,
2009-05-15, 03:39:00,VALID,914.814,VALID,0,VALID,100,VALID,-0.0509425,VALID,19.0509,VALID,19,VALID,0,